BEL6KU EBBR-LFPG

Flight info

Callsign BEL6KU
Flight time N/A
Altitude 19000
Route CIV Y50 IDOKO/N0384F170 Y50 MATIX
Aircraft A320/M-SDE3FGHIRWY/LB1

Departure

Time 2026-05-05 15:14
Airport Brussels Airport (EBBR)

Arrival

Time N/A
Airport Charles de Gaulle International Airport (LFPG)
Time Latitude Longitude Altitude Speed Heading
2026-05-05 14:55 50.90498 4.48897 121 ft 0 kts 155°
2026-05-05 15:03 50.90503 4.48894 121 ft 2 kts 155°
2026-05-05 15:03 50.90517 4.48882 116 ft 2 kts 152°
2026-05-05 15:04 50.90532 4.48869 116 ft 2 kts 147°
2026-05-05 15:04 50.90545 4.48855 118 ft 2 kts 140°
2026-05-05 15:04 50.90557 4.48837 116 ft 2 kts 125°
2026-05-05 15:04 50.90565 4.48815 117 ft 2 kts 92°
2026-05-05 15:05 50.90562 4.48785 117 ft 0 kts 68°
2026-05-05 15:06 50.90562 4.48787 117 ft 1 kts 68°
2026-05-05 15:06 50.90577 4.48838 117 ft 8 kts 66°
2026-05-05 15:07 50.90603 4.48932 119 ft 11 kts 65°
2026-05-05 15:07 50.90637 4.49050 119 ft 13 kts 65°
2026-05-05 15:07 50.90616 4.49155 122 ft 10 kts 152°
2026-05-05 15:07 50.90563 4.49194 124 ft 7 kts 155°
2026-05-05 15:08 50.90518 4.49226 123 ft 7 kts 155°
2026-05-05 15:08 50.90471 4.49261 119 ft 8 kts 155°
2026-05-05 15:08 50.90424 4.49295 123 ft 6 kts 155°
2026-05-05 15:08 50.90383 4.49325 123 ft 9 kts 155°
2026-05-05 15:09 50.90327 4.49384 125 ft 10 kts 137°
2026-05-05 15:09 50.90271 4.49399 126 ft 7 kts 192°
2026-05-05 15:09 50.90234 4.49384 127 ft 5 kts 195°
2026-05-05 15:09 50.90203 4.49371 128 ft 5 kts 194°
2026-05-05 15:10 50.90137 4.49344 129 ft 15 kts 194°
2026-05-05 15:10 50.90027 4.49300 131 ft 16 kts 194°
2026-05-05 15:10 50.89936 4.49263 136 ft 11 kts 194°
2026-05-05 15:10 50.89873 4.49237 139 ft 11 kts 194°
2026-05-05 15:11 50.89743 4.49184 146 ft 26 kts 194°
2026-05-05 15:11 50.89632 4.49150 153 ft 11 kts 169°
2026-05-05 15:11 50.89576 4.49188 156 ft 6 kts 182°
2026-05-05 15:11 50.89541 4.49178 158 ft 7 kts 193°
2026-05-05 15:12 50.89482 4.49154 161 ft 8 kts 194°
2026-05-05 15:12 50.89428 4.49132 163 ft 13 kts 193°
2026-05-05 15:12 50.89363 4.49107 166 ft 9 kts 195°
2026-05-05 15:12 50.89265 4.49066 170 ft 14 kts 194°
2026-05-05 15:13 50.89190 4.49038 176 ft 9 kts 186°
2026-05-05 15:13 50.89160 4.49164 176 ft 37 kts 73°
2026-05-05 15:13 50.89349 4.49963 177 ft 111 kts 70°
2026-05-05 15:13 50.89675 4.51402 263 ft 157 kts 70°
2026-05-05 15:14 50.90037 4.53015 963 ft 155 kts 64°
2026-05-05 15:14 50.90502 4.54537 1793 ft 153 kts 60°
2026-05-05 15:14 50.90992 4.56021 2540 ft 151 kts 59°
2026-05-05 15:14 50.91445 4.57378 3029 ft 160 kts 59°
2026-05-05 15:15 50.91934 4.58835 3341 ft 180 kts 59°
2026-05-05 15:15 50.92560 4.60698 3692 ft 203 kts 59°
2026-05-05 15:15 50.93251 4.62763 4113 ft 227 kts 60°
2026-05-05 15:15 50.93940 4.65171 4668 ft 251 kts 68°
2026-05-05 15:16 50.94517 4.67878 5540 ft 260 kts 71°